Regional Weather Roundup
Issued by NWS

Home | Current Version | Previous Version | Graphics & Text | Print | Product List | Glossary On
Versions: 1 2 3 4 5 6 7 8 9 10 11 12 13 14 15 16 17 18 19 20 21 22 23 24 25 26 27 28 29 30 31 32 33 34 35 36 37 38 39 40 41 42 43 44 45 46 47 48 49 50
000
ASUS43 KTOP 191559
RWRKS

WEATHER ROUNDUP FOR KANSAS
NATIONAL WEATHER SERVICE GOODLAND KS
1000 AM CST SUN NOV 19 2017

NOTE:  "FAIR" INDICATES FEW OR NO CLOUDS BELOW 12,000 FEET WITH NO
SIGNIFICANT WEATHER AND/OR OBSTRUCTIONS TO VISIBILITY.

KSZ001>006-013>018-027>032-041>047-191700-
NORTHWEST KANSAS

CITY           SKY/WX    TMP DP  RH WIND       PRES   REMARKS
GOODLAND       SUNNY     41  17  38 S12       30.16F
HAYS           SUNNY     42  22  44 W10       30.24F
HILL CITY      SUNNY     41  26  55 W6        30.21F
RUSSELL        SUNNY     39  27  62 SW10      30.23F WCI  32
$$

KSZ061>065-074>080-084>089-191700-
SOUTHWEST KANSAS

CITY           SKY/WX    TMP DP  RH WIND       PRES   REMARKS
DODGE CITY     SUNNY     45  18  34 SW16      30.26F
GARDEN CITY    CLOUDY    46  16  30 S17       30.22F
GREAT BEND     SUNNY     43  24  47 SW12      30.26F
LIBERAL        SUNNY     44  17  33 SW17G23   30.26F
$$

KSZ066>073-081>083-090>101-191700-
SOUTHEAST KANSAS

CITY           SKY/WX    TMP DP  RH WIND       PRES   REMARKS
CHANUTE        SUNNY     43  31  62 CALM      30.33S
COFFEYVILLE    SUNNY     43  32  65 CALM      30.34S
HUTCHINSON     SUNNY     43  25  49 W6        30.28F
MEDICINE LODGE   N/A     45  25  45 W3        30.31F
NEWTON         SUNNY     42  25  50 S5        30.29F
PARSONS        SUNNY     42  32  67 CALM      30.35R
WICHITA INTL   MOSUNNY   42  30  62 CALM      30.30F
WICHITA JABRA  SUNNY     43  25  49 SW5       30.30S
WICHITA MCCONL SUNNY     43  25  48 CALM      30.30F
WINFIELD       SUNNY     43  29  57 CALM      30.33F
$$

KSZ007>012-019>026-033>040-048>060-102>105-191700-
NORTHEAST KANSAS

CITY           SKY/WX    TMP DP  RH WIND       PRES   REMARKS
CONCORDIA      SUNNY     39  27  62 SW7       30.23S
EMPORIA        SUNNY     44  29  55 S8        30.29S
LAWRENCE       SUNNY     40  29  64 S5        30.30S
MANHATTAN      SUNNY     39  28  64 S5        30.27F
OLATHE IND     SUNNY     38  22  52 CALM      30.30S
OLATHE EXE     SUNNY     39  21  48 CALM      30.30R
SALINA         SUNNY     43  27  53 S9        30.27F
TOPEKA BILLARD SUNNY     41  29  62 S6        30.29S
TOPEKA FORBES  SUNNY     43  31  62 S7        30.29R
$$



USA.gov is the U.S. government's official web portal to all federal, state and local government web resources and services.